Miscellaneous Local Product
Issued by NWS Hastings, NE

Home | Current Version | Previous Version | Graphics & Text | Print | Product List | Glossary On
Versions: 1 2 3 4 5 6 7 8 9 10 11 12 13 14 15 16 17 18 19 20 21 22 23 24 25 26 27 28 29 30 31 32 33 34 35 36 37 38 39 40 41 42 43 44 45 46 47 48 49 50
000
AXUS43 KGID 180602
MISGRI

GID CWA HOURLY WEATHER ROUNDUP
NATIONAL WEATHER SERVICE HASTINGS NE
100 AM CDT FRI APR 18 2014

NOTE: "FAIR" INDICATES FEW OR NO CLOUDS BELOW 12,000 FEET WITH NO
SIGNIFICANT WEATHER AND/OR OBSTRUCTIONS TO VISIBILITY.

...SOUTH CENTRAL NEBRASKA...

CITY           SKY/WX    TMP DP  RH WIND       PRES   REMARKS
GRAND ISLAND   FAIR      42  28  57 S9        30.21F
HASTINGS       FAIR      42  27  55 S7        30.20F
KEARNEY        FAIR      39  28  65 S9        30.19F WCI  33
ORD            CLEAR     40  27  59 SE5       30.18S
YORK           FAIR      37  27  65 SE6       30.24S WCI  33
AURORA         FAIR      39  28  65 SE7       30.22S WCI  34
LEXINGTON      PTCLDY    42  32  67 S13       30.17S
HOLDREGE       FAIR      40  29  66 S12       30.18F WCI  32
HEBRON         FAIR      38  28  67 S7        30.25R WCI  33

...NEBRASKA PANHANDLE...

CITY           SKY/WX    TMP DP  RH WIND       PRES   REMARKS
CHADRON        CLEAR     48  38  68 S24G38    29.90F
ALLIANCE       CLEAR     43  37  79 S15       29.96F
SCOTTSBLUFF    CLEAR     48  34  58 SE10      29.95S
SIDNEY         CLEAR     44  36  73 S18       30.02S

...WESTERN AND NORTH CENTRAL NEBRASKA...

CITY           SKY/WX    TMP DP  RH WIND       PRES   REMARKS
VALENTINE      PTCLDY    43  31  62 S18       30.06F
AINSWORTH      PTCLDY    42  30  61 SE13      30.10F
ONEILL         CLEAR     38  22  52 SE6       30.18S WCI  34
BROKEN BOW     CLEAR     36  29  75 SE9       30.16R WCI  29
IMPERIAL       CLEAR     42  37  82 S16       30.10S
NORTH PLATTE   CLEAR     42  32  67 SE8       30.12F
MCCOOK         CLEAR     42  37  82 S8        30.16S

...EASTERN NEBRASKA...

CITY           SKY/WX    TMP DP  RH WIND       PRES   REMARKS
NORFOLK        FAIR      35  24  64 SE7       30.22F WCI  29
SO SIOUX CITY  FAIR      36  26  67 E8        30.26S WCI  30
TEKAMAH        FAIR      34  22  61 CALM      30.27R
COLUMBUS       FAIR      34  21  60 CALM      30.24F
ALBION         FAIR      34  24  66 CALM      30.21R
OMAHA EPPLEY   FAIR      37  29  72 N3        30.27S
OFFUTT AFB     FAIR      30  29  93 CALM      30.26S
MILLARD        FAIR      38  29  70 CALM      30.26S
LINCOLN        FAIR      38  26  62 CALM      30.27S
NEBRASKA CITY  FAIR      43  27  54 S5        30.26S
BEATRICE       FAIR      41  28  60 SE5       30.26S
FALLS CITY     FAIR      37  28  70 E5        30.27S WCI  33

...NORTHERN KANSAS...

CITY           SKY/WX    TMP DP  RH WIND       PRES   REMARKS
GOODLAND       CLEAR     40  37  89 S21       30.14S WCI  30
HILL CITY      FAIR      42  37  82 S7        30.21S
PHILLIPSBURG   CLEAR     39  28  65 SE6       30.22S WCI  35
SMITH CENTER   CLEAR     37  27  65 SE9       30.23S WCI  31
BELOIT         CLEAR     39  28  65 SE5       30.24S
HAYS           FAIR      39  30  70 S7        30.22S WCI  34
RUSSELL        FAIR      38  30  73 S10       30.22F WCI  31
CONCORDIA      FAIR      42  31  64 S12       30.25S
SALINA         FAIR      36  28  73 S8        30.27S WCI  30
TOPEKA         FAIR      38  33  82 CALM      30.29S HAZE



USA.gov is the U.S. government's official web portal to all federal, state and local government web resources and services.